Location: Forst
(46.9333°N, 15.4333°E)
Time: 17:39:53
(UTC+00:00)

N. Korean satellite - Visible Passes

Search period start: 24 September 2021 00:00
Search period end: 04 October 2021 00:00
Orbit: 448 x 498 km, 97.3° (Epoch: 23 September)

Date Brightness Start Highest point End Pass type
(mag) Time Alt. Az. Time Alt. Az. Time Alt. Az.
24 Sep 7.9 03:59:54 10° NNE 04:03:19 44° E 04:06:45 10° S visible
25 Sep 9.4 03:32:39 10° NE 03:35:24 21° E 03:38:11 10° SE visible
26 Sep 10.2 03:06:46 10° E 03:07:23 10° E 03:08:00 10° E visible
27 Sep 7.2 04:09:39 10° NNE 04:13:11 60° E 04:16:45 10° S visible
28 Sep 8.9 03:42:11 10° NE 03:45:18 27° E 03:48:25 10° SSE visible
29 Sep 9.9 03:15:24 10° ENE 03:17:17 14° E 03:19:10 10° ESE visible
30 Sep 6.7 04:19:22 10° NNE 04:22:58 80° E 04:26:36 10° S visible
01 Oct 8.4 03:51:44 10° NNE 03:55:05 35° E 03:58:27 10° SSE visible
02 Oct 9.7 03:24:34 10° NE 03:27:05 18° E 03:29:35 10° SE visible
